Погода в Ребрихе

Погода в Ребрихе : погода сейчас, прогноз погоды и архив. Всё, что Вы хотите узнать о погоде в Ребрихе!

Хотите узнать прогноз погоды в Ребрихе? Тогда Вам сюда: Погода в Ребрихе

Поиск расширенной информации на нашем сайте:

Другие новости

Новости СМИ2

Главная страница сайта

Новости сайта

03.07.2017

Напоминаем, что на нашем специализированном сайте Метеоцентр.Азия вы можете получить высокодетализированные автоматические прогнозы погоды по пунктам России, СНГ и мира в авиационном формате (включающие направление и скорость ветра, видимость, явления погоды, количество и форму облачности, нижнюю и верхнюю границу облачности).


Погода в Ребрихе - сегодня

Время (UTC), дата Ветер
(°,м/с) 
Видим.   Явления Облачность Т
(°С)
Тd
(°С)
f(%) Тe
(°С)
Pmin
(гПа)
dP
(гПа)
Po
(мм)
O2
(г/м3)
Тmin Tmax R s Состояние
почвы
00 16.06.18 160 (Ю) н/о    н/о 
+16.4 +9.2 62 +17  1009.5  0.1  738  279  +14.6         
03 16.06.18 160 (Ю) н/о    н/о 
+20.3 +11.4 57 +24  1008.9  -0.3  738  275           
06 16.06.18 150 (ЮВ) н/о    н/о 
+24.7 +11.7 44 +29  1008.1  -0.4  737  270           
09 16.06.18 160 (Ю) н/о    н/о 
+23.8 +11.4 46 +27  1007.4  -0.8  737  271           
12 16.06.18 200 (Ю) н/о    н/о 
+22.7 +13.1 55 +29  1008.1  0.6  737  272    +25.4       
15 16.06.18 220 (ЮЗ) н/о    н/о 
+18.2 +13.2 73 +25  1009.7  1.2  738  276           
18 16.06.18 тихо ()   н/о    н/о 
+13.2 +12.3 94 +18  1010.5  0.3  738  281           
21 16.06.18 360 (С) н/о    н/о 
+12.8 +11.9 94 +18  1009.7  -0.8  738  282           
00 17.06.18 120 (ЮВ) н/о    н/о 
+14.5 +13.7 95 +21  1008.7  -0.8  737  279  +12         
03 17.06.18 110 (В) н/о    н/о 
+21 +13.8 63 +28  1006.9  -1.2  736  273           
06 17.06.18 160 (Ю) 5{10}  н/о    н/о 
+26.7 +12.7 42 +32  1005.3  -1.1  736  268           
09 17.06.18 150 (ЮВ) н/о    н/о 
+29.4 +13.4 37 +36  1003.6  -1.5  734  265           
12 17.06.18 150 (ЮВ) 5{10}  н/о    н/о 
+29.1 +9.5 29 +30  1002.7  -0.9  734  266    +30.4       
15 17.06.18 100 (В) 1{10}  н/о    н/о 
+22.3 +9.9 45 +24  1003.2  734  272           
18 17.06.18 120 (ЮВ) н/о    н/о 
+20.8 +10.7 52 +23  1002.8  -0.5  733  273           
21 17.06.18 290 (З) н/о    н/о 
+14.8 +11 78 +18  1002.2  -1.1  732  278           
00 18.06.18 060 (СВ) н/о    н/о 
+17.9 +11.9 68 +23  1001  -0.8  732  274  +13         
03 18.06.18 тихо ()   н/о    н/о 
+26.1 +13.7 46 +33  999.4  -0.9  731  266           
06 18.06.18 310 (СЗ) н/о    н/о 
+30.1 +14.5 39 +39  997.8  -1.2  730  262           
09 18.06.18 180 (Ю) н/о    н/о 
+31.9 +13.3 32 +38  997.1  -0.6  730  261           
12 18.06.18 310 (СЗ) 3{10}  н/о    н/о 
+26.7 +18.2 60 +42  997.6  0.1  730  264    +32.5       
15 18.06.18 250 (З) 2{11}  н/о    н/о 
+23 +16.2 66 +35  998.5  0.5  730  268           
18 18.06.18 тихо () {28}  н/о    н/о 
+15.3 +14.6 96 +24  998.8  -0.4  730  275           
21 18.06.18 тихо ()   н/о    н/о 
+13.1 +12.9 99 +19  998.9  -0.1  730  278           
00 19.06.18 тихо ()   н/о    н/о 
+13.8 +13.9 100 +21  998.3  -0.5  730  277  +11.8    11     
Время (UTC), дата Ветер
(°,м/с) 
Видим.   Явления Облачность Т
(°С)
Тd
(°С)
f(%) Тe
(°С)
Pmin
(гПа)
dP
(гПа)
Po
(мм)
O2
(г/м3)
Тmin Tmax R s Состояние
почвы

Для получения пояснительной информации подведите курсор к названию столбца.

ПОГОДА в Ребрихе - архив

Всё, что Вы хотите узнать о погоде в Ребрихе - удобно и подробно!

Выберите нужную дату (начиная с 1 января 2015* года) и нажмите кнопку "Найти".
Будут отображены архивные сводки погоды по пункту Ребриха, начиная с указанной даты.


Отображать данные в формате CSV (для использования в таблицах Excel)


Внимание! Наш архив погоды предназначен исключительно для личного некоммерческого использования в познавательных целях. Если Вам необходимы официальные справки о состоянии погоды (для производственных, юридических, коммерческих и т.п. целей), обращайтесь в органы Росгидромета.

*Примечание: данная дата относится к архиву по метеостанциям СССР (Россия, СНГ, Балтия).
Архив по метеостанциям Зарубежной Европы и Азии (кроме Китая) хранится 10 дней, по другим регионам земного шара (Китай, Африка, Америка, Австралия, Океания) - 1 день.

Ребриха - район местоположения метеостанции


Название, широта, долгота, высота метеостанции:
Ребриха 53.1°ш. 82.3°д. 219 м над ур. моря [Российская Федерация]

Дополнительная информация

В oтличие oт бoльшинства пoгoдных сайтoв мы публикуем пoдрoбную метеoинфoрмацию в детальнoм прoфессиoнальнoм фoрмате.

Характеристики температуры и влажнoсти вoздуха измеряются на высoте 2 м в тени вдали oт зданий и деревьев.
Скoрoсть ветра измеряется на высoте 10 м (на урoвне рoста челoвека скoрoсть ветра ниже в 1.5-2 раза). Если метеoстанция нахoдится в гoрoде или в лесу, тo скoрoсть ветра занижена на 2-4 м/с пo сравнению с oткрытым местoм. Скoрoсть ветра над акватoриями крупных рек и oзёр, а также на вершинах хoлмoв на 2-5 м/с выше, чем в oбычных услoвиях.
Атмoсфернoе давление в разных тoчках местнoсти мoжет значительнo oтличаться oт давления на метеoстанции, в зависимoсти oт услoвий рельефа (при пoдъёме на 10 м давление пoнижается примернo на 1 мм рт.ст.).